SCP
0 0 0 0 0 0 -0 0 0 0 0 0 0 0 0 0 0 0 -0 -0 -0 0 0 0 0 0 0 0 0 0 0 0 0 0 0 0 0 0 0 0 0 -0 0 0
0 0 0 0 0 -0 0 0 0 0 0 0 0 0 0 0 0 0 -0 -0 -0 0 0 0 0 0 0 0 0 0 0 0 0 0 0 0 -0 0 0 0 0 0 -0 0
0 0 0 0 0 0 0 0 0 0 0 0 0 0 0 0 0 0 0 0 0 0 0 0 0 0 0 0 0 0 0 0 0 0 0 0 0 0 0 0 0 0 -0 -0
0 0 0 0 0 0 0 0 0 0 0 0 0 0 0 0 0 0 0 0 0 0 0 0 0 0 0 0 -0 0 0 0 0 0 0 0 0 -0 0 0 -0 0 0 0
0 0 0 0 0 0 0 0 0 0 0 0 0 0 0 0 0 0 0 0 0 0 0 0 0 0 0 -0 0 0 0 0 0 0 0 0 0 -0 0 -0 0 -0 0 0
0 0 0 0 0 0 0 0 0 0 0 0 0 0 0 0 0 -0 0 0 0 0 0 0 0 0 0 0 0 0 0 0 0 0 0 0 0 -0 0 0 0 -0 -0 -0
0 0 0 0 0 0 0 0 0 0 0 0 0 0 0 0 0 -0 0 0 0 0 -0 -0 0 0 0 0 0 0 0 0 0 0 0 0 0 0 0 -0 0 -0 0 -0
0 0 0 0 0 0 0 0 0 0 0 0 0 0 0 0 0 0 0 0 0 -0 -0 0 0 0 0 0 0 0 0 0 0 0 0 0 0 0 0 0 0 -0 -0 0
0 0 0 0 0 0 0 0 0 0 0 0 0 0 0 0 -0 0 -0 0 0 -0 0 0 0 0 0 0 0 0 0 0 0 0 0 0 0 0 0 0 0 0 -1 -1
0 0 0 0 0 0 0 0 0 0 0 0 0 0 0 0 -0 -0 -0 0 0 0 0 0 0 0 0 0 0 0 0 0 0 0 0 0 0 0 0 0 -0 0 -0 -2
0 0 0 0 0 0 0 0 0 0 -0 0 0 0 0 0 -0 -0 0 0 0 0 0 0 0 0 0 0 0 0 0 0 0 0 0 0 0 0 0 0 -0 -1 -0 -1
0 -0 0 0 0 0 0 0 0 0 -0 0 0 0 0 -0 0 -0 0 0 0 0 0 0 0 1 0 0 0 0 0 0 0 0 0 0 0 0 0 0 -0 0 -0 -0
0 -0 -0 0 0 0 0 0 0 0 0 0 0 0 0 -0 -0 0 0 0 0 0 0 0 0 0 0 0 0 0 0 0 0 0 0 0 0 0 0 0 -0 -0 -0 -0
0 -0 -0 -0 -0 0 0 0 0 0 0 0 0 0 0 -0 -0 0 0 0 0 0 0 0 0 0 0 0 0 0 0 0 0 0 0 0 0 0 0 0 1 0 0 -0
0 0 -0 -0 -0 0 0 0 0 0 -0 0 0 0 0 -0 -0 0 0 0 0 0 0 0 0 0 0 0 0 0 0 0 0 0 0 0 0 0 1 1 1 1 0 0
-0 -0 -0 -0 -0 0 0 0 0 -0 -0 0 0 0 0 0 -0 0 -0 0 0 0 0 0 0 0 0 0 0 0 0 0 0 0 0 0 0 1 1 1 0 0 0 0
-0 -0 -0 -0 -0 -0 0 0 0 0 -0 0 0 0 0 0 -0 -0 0 -0 0 0 0 0 0 0 0 0 0 0 0 0 0 0 0 0 2 1 1 1 1 1 1 1
-0 -0 -0 -0 -0 0 0 -0 -0 -0 0 0 0 0 0 0 -0 0 0 0 0 0 0 0 0 0 0 0 0 0 0 0 0 0 1 0 1 2 2 2 2 1 1 1
-0 -0 -0 0 0 0 0 0 0 0 0 0 0 0 0 0 0 0 0 0 0 0 0 0 0 0 0 0 0 0 0 0 0 0 1 1 2 2 2 2 2 1 0 0
-0 -0 0 0 0 0 0 0 0 0 0 0 0 0 0 0 0 0 0 0 0 0 0 0 0 0 0 0 0 0 0 0 0 0 1 3 2 2 1 1 1 0 0 0
-0 0 0 0 -0 0 0 0 0 0 0 0 0 0 0 0 0 0 0 0 0 0 0 0 0 0 0 0 0 0 0 0 0 0 0 0 1 0 1 1 1 1 0 0
0 0 0 0 0 0 0 0 0 0 0 0 0 0 0 0 0 0 0 0 0 0 0 0 0 0 0 0 0 0 0 0 0 0 0 0 0 0 1 1 1 1 1 0
-0 0 0 0 0 0 0 0 0 0 0 0 0 0 0 0 0 0 0 0 0 0 0 0 0 0 0 0 0 0 0 0 0 0 0 0 0 0 0 0 1 1 0 0
-0 -0 -0 0 0 0 0 0 0 0 0 0 0 0 0 0 0 0 0 0 0 0 0 0 0 0 0 0 0 1 0 0 0 0 0 0 0 0 0 0 0 0 0 0
0 -0 -0 -0 0 0 0 0 0 0 0 0 0 0 0 0 0 0 0 0 0 0 0 0 0 0 0 0 0 0 1 0 0 0 0 0 0 -0 0 0 0 0 0 0
0 0 0 -0 0 0 0 0 0 0 0 0 0 0 0 0 0 0 0 0 0 0 0 0 0 0 0 0 0 0 0 0 0 0 0 0 0 0 0 0 0 0 0 0
0 0 0 0 -0 -0 0 0 0 0 0 0 0 0 0 0 0 0 0 0 0 0 0 0 0 0 0 0 0 0 0 0 1 0 0 0 0 0 0 0 0 0 0 0
Wind_Speed_500mb
43 44 46 47 53 53 40 20 7 7 42 7 4 9 12 9 8 4 4 1 10 9 6 7 6 10 19 38 23 19 16 11 10 23 13 8 5 11 12 11 9 6 5 11
39 39 40 38 41 48 48 35 12 15 31 5 4 8 9 14 9 8 6 8 11 4 9 6 8 11 21 37 18 20 14 3 2 18 13 11 6 9 11 14 8 12 12 11
39 37 37 34 31 35 35 13 7 4 33 13 7 5 7 8 6 10 13 10 11 7 13 15 14 8 12 25 27 47 36 10 15 15 15 9 13 9 8 16 9 12 12 8
37 34 35 35 31 31 20 6 6 7 6 3 2 2 2 5 4 9 5 8 17 15 11 7 16 18 15 29 17 21 18 16 13 14 11 15 27 38 17 16 15 21 18 19
38 36 33 34 34 30 11 6 8 13 15 19 5 11 13 13 7 12 11 13 18 20 26 25 12 8 6 17 1 16 4 10 15 16 16 27 22 29 27 27 11 9 18 2
35 35 32 31 32 28 8 7 10 9 14 7 3 7 1 7 16 17 36 19 5 17 45 52 58 47 49 43 10 15 18 15 8 14 13 15 5 37 27 9 11 20 19 16
32 32 31 27 26 26 24 19 16 6 8 6 6 9 15 25 22 24 14 31 18 47 35 41 50 60 62 36 36 21 16 16 9 10 5 10 17 26 33 40 27 25 20 31
31 33 32 28 24 21 24 26 14 9 8 8 16 11 10 26 31 19 30 50 57 57 32 4 9 7 7 19 21 19 17 14 6 12 9 9 7 13 21 15 8 30 29 26
36 36 31 30 24 23 24 22 21 17 10 11 13 15 15 6 7 9 11 42 61 32 11 9 15 12 13 11 11 15 5 19 12 6 12 16 19 8 47 23 3 32 60 50
36 29 31 31 25 22 21 24 15 9 11 39 25 12 7 7 6 6 13 22 32 17 8 10 8 10 16 15 24 14 7 7 23 7 8 14 12 24 61 24 21 49 71 83
29 27 32 30 25 19 22 19 17 15 13 54 49 45 25 12 8 3 15 22 10 9 4 5 6 8 8 9 14 20 15 16 9 8 8 10 9 21 28 17 69 84 70 93
28 24 30 27 24 17 23 21 15 19 28 44 45 58 53 50 30 24 9 15 22 8 6 3 3 4 1 7 7 1 7 16 13 14 13 11 56 44 35 62 84 84 90 78
25 24 29 26 20 15 19 30 23 19 17 52 52 52 35 39 34 45 23 14 16 23 32 6 6 6 5 6 5 10 13 8 10 9 8 10 48 19 29 51 103 102 96 105
25 25 24 19 19 19 24 36 29 24 11 9 17 2 18 28 42 50 70 55 58 56 37 7 4 3 9 4 7 9 4 9 5 3 9 20 25 35 46 75 82 83 94 107
30 29 26 22 21 22 25 24 13 3 6 7 29 47 9 32 38 60 54 45 45 39 9 6 5 5 10 6 6 10 8 1 5 10 8 7 14 33 62 86 83 92 99 86
35 30 28 28 27 25 20 7 9 10 25 10 8 17 5 38 30 38 31 8 14 16 7 6 11 8 5 7 6 6 20 22 16 12 15 14 13 60 81 95 99 112 105 100
35 31 29 30 27 21 10 5 8 15 17 8 9 10 5 23 54 17 5 6 5 10 9 6 8 10 11 6 6 17 41 36 38 16 12 14 35 57 79 89 100 101 93 96
32 30 23 15 7 5 7 5 16 19 12 10 5 9 12 6 16 10 8 9 8 6 7 9 4 11 9 8 10 21 47 64 66 45 10 22 37 59 59 63 83 87 90 91
30 24 12 4 4 5 9 19 17 12 11 7 4 5 7 26 15 11 7 5 3 10 2 5 6 6 6 6 5 29 43 45 57 48 27 35 57 72 71 83 80 94 90 85
28 17 7 5 12 15 13 2 3 6 8 7 5 10 7 13 11 4 8 2 3 2 7 7 7 5 14 10 15 22 26 41 49 62 51 32 46 71 83 94 103 104 101 94
19 14 7 13 16 8 5 5 1 1 4 10 10 11 6 9 6 3 6 1 4 1 8 5 5 3 8 28 15 25 25 18 24 31 31 20 25 52 72 75 82 93 94 96
21 18 17 13 8 6 6 5 7 3 5 4 5 7 11 6 3 5 3 6 2 2 5 6 5 7 30 31 20 9 5 16 10 7 18 29 9 40 53 61 71 78 79 72
8 6 6 6 2 8 1 5 5 5 10 8 8 5 6 4 7 8 4 5 2 3 5 5 3 20 34 41 25 6 5 4 5 7 7 7 19 7 35 45 52 65 71 78
5 5 10 6 5 7 7 6 5 10 18 34 15 2 6 7 6 2 7 3 2 5 5 5 5 19 39 41 43 24 3 2 6 6 15 11 7 6 10 39 42 48 58 62
5 4 7 9 12 10 17 19 11 13 18 26 9 7 10 7 6 6 4 4 3 2 3 4 7 27 41 48 39 37 35 16 9 14 11 15 16 12 15 20 39 58 56 65
6 10 7 14 7 7 5 15 6 18 14 11 6 5 6 6 3 3 4 5 4 1 4 9 20 31 39 42 44 34 24 21 16 8 7 12 10 28 31 37 42 53 59 70
8 12 20 29 27 23 24 20 9 15 9 3 4 3 1 3 3 4 6 6 8 10 16 17 25 31 35 35 35 38 29 13 11 7 2 8 17 23 31 38 46 51 59 72
Wind_Direction_500mb
332 331 332 332 330 334 336 346 337 39 147 88 93 156 192 244 251 299 291 272 195 220 340 292 255 246 223 191 147 158 192 151 224 219 308 183 0 142 142 124 213 96 147 267
333 335 334 339 342 340 346 335 291 178 189 164 238 259 220 222 184 180 209 235 195 126 147 8 250 247 267 260 157 162 172 225 241 339 357 344 180 204 117 108 87 185 138 256
335 336 336 338 342 338 338 321 329 174 211 252 162 197 219 229 235 213 186 217 223 258 277 189 265 264 297 325 205 193 155 144 157 194 207 163 161 240 183 119 129 167 206 246
339 339 337 335 336 332 329 269 268 321 289 312 356 286 306 261 254 229 257 290 221 195 237 216 230 258 267 277 227 156 140 180 163 219 219 176 196 189 179 175 153 181 193 191
339 339 340 336 335 338 319 299 335 333 290 283 231 187 210 217 245 202 243 220 255 243 221 210 233 211 225 242 156 155 217 200 167 217 179 193 215 226 207 197 127 71 107 276
331 335 338 338 336 342 316 314 279 293 276 286 170 219 179 241 306 254 239 256 285 254 247 237 246 255 262 257 261 167 153 137 113 234 165 139 225 205 193 200 165 145 152 194
329 327 329 330 332 329 329 327 331 287 272 241 250 333 300 297 281 251 258 288 256 250 289 299 284 260 259 245 242 196 145 136 133 191 115 163 232 186 186 190 174 176 131 154
327 329 323 324 316 311 305 315 300 263 271 319 305 298 306 313 278 248 258 269 271 292 309 246 257 252 182 226 225 218 143 130 120 143 172 262 256 153 143 164 214 165 138 131
320 315 319 318 310 294 300 313 278 230 292 239 255 314 282 271 290 280 270 296 309 301 202 160 211 200 187 191 124 69 61 162 132 137 153 202 228 184 179 115 179 178 149 148
313 312 314 318 312 277 308 299 281 262 270 271 284 247 268 282 298 277 294 336 331 290 191 191 158 236 185 157 155 152 116 69 176 149 161 279 239 154 148 148 205 177 168 159
318 318 312 314 315 283 303 300 276 240 255 272 270 263 270 269 220 207 334 346 257 283 72 132 183 217 232 95 157 162 153 135 174 103 122 245 138 144 163 192 158 168 175 165
310 313 301 310 307 296 286 303 304 292 253 268 276 276 265 266 268 309 281 252 286 281 6 325 260 273 299 177 134 70 129 169 168 164 199 232 171 175 177 173 161 172 170 172
314 310 305 313 295 283 289 306 318 329 268 283 271 271 272 224 231 255 247 271 313 300 318 262 257 260 145 97 166 124 6 55 118 100 210 192 200 202 186 175 169 171 175 178
336 331 322 307 295 292 283 294 304 282 268 275 290 192 212 230 224 241 228 260 291 290 297 234 259 302 14 54 144 95 242 26 92 243 259 137 181 207 188 181 170 166 176 181
328 323 325 319 309 306 307 294 187 117 292 279 287 302 227 206 229 234 223 250 281 294 355 8 317 304 19 5 54 30 359 166 151 214 238 175 189 188 173 163 167 175 177 175
328 322 308 303 306 316 340 146 165 356 343 306 302 305 274 164 211 207 211 251 290 304 350 279 319 356 42 73 88 274 4 23 355 265 288 251 166 172 179 173 176 184 184 184
327 326 314 292 284 292 288 270 308 316 320 256 292 283 304 170 188 177 161 216 332 321 317 354 331 330 24 71 66 316 33 30 27 2 181 140 172 176 177 181 182 182 181 181
333 337 334 316 223 238 240 289 322 318 286 242 265 273 308 24 145 130 105 21 1 350 330 345 354 333 37 73 266 20 30 36 37 29 245 188 177 177 169 175 173 169 175 178
332 333 345 14 22 314 284 308 291 273 255 289 312 312 311 356 24 55 63 92 8 324 14 230 39 303 65 253 270 29 32 31 15 39 65 139 164 164 167 169 167 172 174 179
333 332 332 321 325 309 304 273 236 213 206 240 255 291 279 348 15 72 109 319 165 20 273 334 58 313 307 310 313 347 16 40 23 22 32 84 125 155 167 178 184 186 182 181
353 348 327 323 325 329 328 303 254 285 281 204 243 251 290 351 27 55 53 84 14 53 274 100 8 333 298 351 281 290 306 358 17 21 29 60 163 160 173 179 181 183 183 185
324 311 313 327 340 331 357 293 301 194 239 260 251 294 251 296 302 129 22 134 127 158 297 70 27 295 357 5 350 4 328 279 298 6 26 29 25 193 182 181 182 185 183 180
329 321 302 324 302 20 271 337 324 315 342 353 311 295 289 285 360 83 84 86 167 203 56 111 212 313 18 31 31 6 304 81 105 222 251 59 45 200 214 197 185 184 187 187
315 339 320 172 259 249 210 221 247 319 326 338 339 332 60 344 31 7 58 338 56 67 73 92 277 357 28 39 38 47 57 186 117 256 255 216 222 173 191 204 201 190 192 188
268 244 243 232 243 286 315 290 255 325 334 351 357 28 18 1 48 22 44 55 59 145 140 182 12 36 35 37 36 39 59 97 217 248 250 230 188 233 218 210 225 220 215 200
246 235 264 259 290 286 332 31 43 14 353 348 9 23 35 6 51 30 235 165 154 137 97 77 40 34 31 29 30 25 30 47 72 65 269 245 244 209 200 205 211 218 215 209
241 247 247 260 278 268 275 282 289 356 2 48 10 8 206 308 70 246 193 180 179 128 86 65 41 31 24 19 18 16 11 359 19 32 319 231 218 220 210 202 210 217 216 208
Wind_Speed_850mb
43 44 46 47 53 53 40 20 7 7 42 7 4 9 12 9 8 4 4 1 10 9 6 7 6 10 19 38 23 19 16 11 10 23 13 8 5 11 12 11 9 6 5 11
39 39 40 38 41 48 48 35 12 15 31 5 4 8 9 14 9 8 6 8 11 4 9 6 8 11 21 37 18 20 14 3 2 18 13 11 6 9 11 14 8 12 12 11
39 37 37 34 31 35 35 13 7 4 33 13 7 5 7 8 6 10 13 10 11 7 13 15 14 8 12 25 27 47 36 10 15 15 15 9 13 9 8 16 9 12 12 8
37 34 35 35 31 31 20 6 6 7 6 3 2 2 2 5 4 9 5 8 17 15 11 7 16 18 15 29 17 21 18 16 13 14 11 15 27 38 17 16 15 21 18 19
38 36 33 34 34 30 11 6 8 13 15 19 5 11 13 13 7 12 11 13 18 20 26 25 12 8 6 17 1 16 4 10 15 16 16 27 22 29 27 27 11 9 18 2
35 35 32 31 32 28 8 7 10 9 14 7 3 7 1 7 16 17 36 19 5 17 45 52 58 47 49 43 10 15 18 15 8 14 13 15 5 37 27 9 11 20 19 16
32 32 31 27 26 26 24 19 16 6 8 6 6 9 15 25 22 24 14 31 18 47 35 41 50 60 62 36 36 21 16 16 9 10 5 10 17 26 33 40 27 25 20 31
31 33 32 28 24 21 24 26 14 9 8 8 16 11 10 26 31 19 30 50 57 57 32 4 9 7 7 19 21 19 17 14 6 12 9 9 7 13 21 15 8 30 29 26
36 36 31 30 24 23 24 22 21 17 10 11 13 15 15 6 7 9 11 42 61 32 11 9 15 12 13 11 11 15 5 19 12 6 12 16 19 8 47 23 3 32 60 50
36 29 31 31 25 22 21 24 15 9 11 39 25 12 7 7 6 6 13 22 32 17 8 10 8 10 16 15 24 14 7 7 23 7 8 14 12 24 61 24 21 49 71 83
29 27 32 30 25 19 22 19 17 15 13 54 49 45 25 12 8 3 15 22 10 9 4 5 6 8 8 9 14 20 15 16 9 8 8 10 9 21 28 17 69 84 70 93
28 24 30 27 24 17 23 21 15 19 28 44 45 58 53 50 30 24 9 15 22 8 6 3 3 4 1 7 7 1 7 16 13 14 13 11 56 44 35 62 84 84 90 78
25 24 29 26 20 15 19 30 23 19 17 52 52 52 35 39 34 45 23 14 16 23 32 6 6 6 5 6 5 10 13 8 10 9 8 10 48 19 29 51 103 102 96 105
25 25 24 19 19 19 24 36 29 24 11 9 17 2 18 28 42 50 70 55 58 56 37 7 4 3 9 4 7 9 4 9 5 3 9 20 25 35 46 75 82 83 94 107
30 29 26 22 21 22 25 24 13 3 6 7 29 47 9 32 38 60 54 45 45 39 9 6 5 5 10 6 6 10 8 1 5 10 8 7 14 33 62 86 83 92 99 86
35 30 28 28 27 25 20 7 9 10 25 10 8 17 5 38 30 38 31 8 14 16 7 6 11 8 5 7 6 6 20 22 16 12 15 14 13 60 81 95 99 112 105 100
35 31 29 30 27 21 10 5 8 15 17 8 9 10 5 23 54 17 5 6 5 10 9 6 8 10 11 6 6 17 41 36 38 16 12 14 35 57 79 89 100 101 93 96
32 30 23 15 7 5 7 5 16 19 12 10 5 9 12 6 16 10 8 9 8 6 7 9 4 11 9 8 10 21 47 64 66 45 10 22 37 59 59 63 83 87 90 91
30 24 12 4 4 5 9 19 17 12 11 7 4 5 7 26 15 11 7 5 3 10 2 5 6 6 6 6 5 29 43 45 57 48 27 35 57 72 71 83 80 94 90 85
28 17 7 5 12 15 13 2 3 6 8 7 5 10 7 13 11 4 8 2 3 2 7 7 7 5 14 10 15 22 26 41 49 62 51 32 46 71 83 94 103 104 101 94
19 14 7 13 16 8 5 5 1 1 4 10 10 11 6 9 6 3 6 1 4 1 8 5 5 3 8 28 15 25 25 18 24 31 31 20 25 52 72 75 82 93 94 96
21 18 17 13 8 6 6 5 7 3 5 4 5 7 11 6 3 5 3 6 2 2 5 6 5 7 30 31 20 9 5 16 10 7 18 29 9 40 53 61 71 78 79 72
8 6 6 6 2 8 1 5 5 5 10 8 8 5 6 4 7 8 4 5 2 3 5 5 3 20 34 41 25 6 5 4 5 7 7 7 19 7 35 45 52 65 71 78
5 5 10 6 5 7 7 6 5 10 18 34 15 2 6 7 6 2 7 3 2 5 5 5 5 19 39 41 43 24 3 2 6 6 15 11 7 6 10 39 42 48 58 62
5 4 7 9 12 10 17 19 11 13 18 26 9 7 10 7 6 6 4 4 3 2 3 4 7 27 41 48 39 37 35 16 9 14 11 15 16 12 15 20 39 58 56 65
6 10 7 14 7 7 5 15 6 18 14 11 6 5 6 6 3 3 4 5 4 1 4 9 20 31 39 42 44 34 24 21 16 8 7 12 10 28 31 37 42 53 59 70
8 12 20 29 27 23 24 20 9 15 9 3 4 3 1 3 3 4 6 6 8 10 16 17 25 31 35 35 35 38 29 13 11 7 2 8 17 23 31 38 46 51 59 72
Wind_Direction_850mb
332 331 332 332 330 334 336 346 337 39 147 88 93 156 192 244 251 299 291 272 195 220 340 292 255 246 223 191 147 158 192 151 224 219 308 183 0 142 142 124 213 96 147 267
333 335 334 339 342 340 346 335 291 178 189 164 238 259 220 222 184 180 209 235 195 126 147 8 250 247 267 260 157 162 172 225 241 339 357 344 180 204 117 108 87 185 138 256
335 336 336 338 342 338 338 321 329 174 211 252 162 197 219 229 235 213 186 217 223 258 277 189 265 264 297 325 205 193 155 144 157 194 207 163 161 240 183 119 129 167 206 246
339 339 337 335 336 332 329 269 268 321 289 312 356 286 306 261 254 229 257 290 221 195 237 216 230 258 267 277 227 156 140 180 163 219 219 176 196 189 179 175 153 181 193 191
339 339 340 336 335 338 319 299 335 333 290 283 231 187 210 217 245 202 243 220 255 243 221 210 233 211 225 242 156 155 217 200 167 217 179 193 215 226 207 197 127 71 107 276
331 335 338 338 336 342 316 314 279 293 276 286 170 219 179 241 306 254 239 256 285 254 247 237 246 255 262 257 261 167 153 137 113 234 165 139 225 205 193 200 165 145 152 194
329 327 329 330 332 329 329 327 331 287 272 241 250 333 300 297 281 251 258 288 256 250 289 299 284 260 259 245 242 196 145 136 133 191 115 163 232 186 186 190 174 176 131 154
327 329 323 324 316 311 305 315 300 263 271 319 305 298 306 313 278 248 258 269 271 292 309 246 257 252 182 226 225 218 143 130 120 143 172 262 256 153 143 164 214 165 138 131
320 315 319 318 310 294 300 313 278 230 292 239 255 314 282 271 290 280 270 296 309 301 202 160 211 200 187 191 124 69 61 162 132 137 153 202 228 184 179 115 179 178 149 148
313 312 314 318 312 277 308 299 281 262 270 271 284 247 268 282 298 277 294 336 331 290 191 191 158 236 185 157 155 152 116 69 176 149 161 279 239 154 148 148 205 177 168 159
318 318 312 314 315 283 303 300 276 240 255 272 270 263 270 269 220 207 334 346 257 283 72 132 183 217 232 95 157 162 153 135 174 103 122 245 138 144 163 192 158 168 175 165
310 313 301 310 307 296 286 303 304 292 253 268 276 276 265 266 268 309 281 252 286 281 6 325 260 273 299 177 134 70 129 169 168 164 199 232 171 175 177 173 161 172 170 172
314 310 305 313 295 283 289 306 318 329 268 283 271 271 272 224 231 255 247 271 313 300 318 262 257 260 145 97 166 124 6 55 118 100 210 192 200 202 186 175 169 171 175 178
336 331 322 307 295 292 283 294 304 282 268 275 290 192 212 230 224 241 228 260 291 290 297 234 259 302 14 54 144 95 242 26 92 243 259 137 181 207 188 181 170 166 176 181
328 323 325 319 309 306 307 294 187 117 292 279 287 302 227 206 229 234 223 250 281 294 355 8 317 304 19 5 54 30 359 166 151 214 238 175 189 188 173 163 167 175 177 175
328 322 308 303 306 316 340 146 165 356 343 306 302 305 274 164 211 207 211 251 290 304 350 279 319 356 42 73 88 274 4 23 355 265 288 251 166 172 179 173 176 184 184 184
327 326 314 292 284 292 288 270 308 316 320 256 292 283 304 170 188 177 161 216 332 321 317 354 331 330 24 71 66 316 33 30 27 2 181 140 172 176 177 181 182 182 181 181
333 337 334 316 223 238 240 289 322 318 286 242 265 273 308 24 145 130 105 21 1 350 330 345 354 333 37 73 266 20 30 36 37 29 245 188 177 177 169 175 173 169 175 178
332 333 345 14 22 314 284 308 291 273 255 289 312 312 311 356 24 55 63 92 8 324 14 230 39 303 65 253 270 29 32 31 15 39 65 139 164 164 167 169 167 172 174 179
333 332 332 321 325 309 304 273 236 213 206 240 255 291 279 348 15 72 109 319 165 20 273 334 58 313 307 310 313 347 16 40 23 22 32 84 125 155 167 178 184 186 182 181
353 348 327 323 325 329 328 303 254 285 281 204 243 251 290 351 27 55 53 84 14 53 274 100 8 333 298 351 281 290 306 358 17 21 29 60 163 160 173 179 181 183 183 185
324 311 313 327 340 331 357 293 301 194 239 260 251 294 251 296 302 129 22 134 127 158 297 70 27 295 357 5 350 4 328 279 298 6 26 29 25 193 182 181 182 185 183 180
329 321 302 324 302 20 271 337 324 315 342 353 311 295 289 285 360 83 84 86 167 203 56 111 212 313 18 31 31 6 304 81 105 222 251 59 45 200 214 197 185 184 187 187
315 339 320 172 259 249 210 221 247 319 326 338 339 332 60 344 31 7 58 338 56 67 73 92 277 357 28 39 38 47 57 186 117 256 255 216 222 173 191 204 201 190 192 188
268 244 243 232 243 286 315 290 255 325 334 351 357 28 18 1 48 22 44 55 59 145 140 182 12 36 35 37 36 39 59 97 217 248 250 230 188 233 218 210 225 220 215 200
246 235 264 259 290 286 332 31 43 14 353 348 9 23 35 6 51 30 235 165 154 137 97 77 40 34 31 29 30 25 30 47 72 65 269 245 244 209 200 205 211 218 215 209
241 247 247 260 278 268 275 282 289 356 2 48 10 8 206 308 70 246 193 180 179 128 86 65 41 31 24 19 18 16 11 359 19 32 319 231 218 220 210 202 210 217 216 208